Location: Rowland
(34.5359°N, 79.2929°W)
Time: 13:44:00
(UTC+00:00)

SR - Pass Details

Date: 06 October 2022
Orbit: 577 x 875 km, 66.7° (Epoch: 28 November)

Event Time Altitude Azimuth Distance (km) Brightness Sun altitude
Rises 09:28:12 0° 346° (NNW) 3,294 ? -22.9°
Reaches altitude 10° 09:31:13 10° 0° (N) 2,306 ? -22.3°
Maximum altitude 09:35:18 23° 52° (NE) 1,539 ? -21.4°
Drops below altitude 10° 09:39:08 10° 103° (ESE) 2,140 ? -20.6°
Sets 09:41:48 0° 119° (ESE) 2,997 ? -20.1°
